Houlton, ME

4:41 PM EST on November 17, 2017 (GMT -0500)
Houlton International

Weather History for KHUL - March, 2014

Change the Weather History Date:

Monday, March 24, 2014

  Actual Average Record
Temperature  
Mean Temperature 5 °F 29 °F  
Max Temperature 19 °F 39 °F 61 °F (1973)
Min Temperature -9 °F 19 °F -16 °F (2008)
Degree Days  
Heating Degree Days 60 36  
Month to date heating degree days 1209 982  
Since 1 July heating degree days 7799 7555  
Cooling Degree Days 0 0  
Month to date cooling degree days 0 0  
Year to date cooling degree days 0 0  
Moisture  
Dew Point -6 °F    
Average Humidity 58    
Maximum Humidity 76    
Minimum Humidity 39    
Precipitation  
Precipitation 0.00 in 0.09 in 0.52 in (1972)
Month to date precipitation 1.53 2.00  
Year to date precipitation 7.11 6.86  
Sea Level Pressure  
Sea Level Pressure 29.98 in    
Wind  
Wind Speed 9 mph (NW)    
Max Wind Speed 20 mph    
Max Gust Speed 27 mph    
Visibility 10 miles    
Events      
T = Trace of Precipitation, MM = Missing Value Source: NWS Daily Summary

Daily Weather History Graph

Daily Weather History Graph

Search for Another Location

Airport or City:

Trip Planner

Search our weather history database for the weather conditions in past years. The results will help you decide how hot, cold, wet, or windy it might be!

Date:

Astronomy

Mar. 24, 2014 Rise Set
Actual Time 6:26 AM EDT 6:49 PM EDT
Civil Twilight 5:56 AM EDT 7:19 PM EDT
Nautical Twilight 5:21 AM EDT 7:54 PM EDT
Astronomical Twilight 4:44 AM EDT 8:31 PM EDT
Moon 2:11 AM EDT (3/24) 11:52 AM EDT (3/24)
Length of Visible Light 13h 22m
Length of Day
12h 22m
Last Quarter, 43% of the Moon is Illuminated
Mar 24
Last Quarter
Mar 30
New
Apr 7
First Quarter
Apr 15
Full
Apr 22
Last Quarter

Hourly Weather History & Observations

Time (EDT) Temp. Windchill Dew Point Humidity Pressure Visibility Wind Dir Wind Speed Gust Speed Precip Events Conditions
12:53 AM 3.0 °F -6.4 °F -9.0 °F 57% 30.03 in 10.0 mi NNW 4.6 mph - N/A   Clear
1:53 AM 1.0 °F -8.7 °F -9.0 °F 63% 30.02 in 10.0 mi NW 4.6 mph - N/A   Clear
2:53 AM 1.0 °F -6.7 °F -9.9 °F 60% 30.00 in 10.0 mi NW 3.5 mph - N/A   Clear
3:53 AM 1.0 °F -8.7 °F -9.9 °F 60% 30.00 in 10.0 mi NNW 4.6 mph - N/A   Clear
4:53 AM -0.0 °F -14.2 °F -9.9 °F 63% 29.99 in 10.0 mi NW 8.1 mph - N/A   Clear
5:53 AM -0.9 °F -11.0 °F -9.9 °F 66% 30.00 in 10.0 mi North 4.6 mph - N/A   Clear
6:53 AM -0.0 °F -9.9 °F -9.9 °F 63% 30.01 in 10.0 mi Variable 4.6 mph - N/A   Clear
7:53 AM 1.9 °F -10.6 °F -9.0 °F 60% 30.02 in 10.0 mi Variable 6.9 mph - N/A   Clear
8:53 AM 5.0 °F -13.6 °F -8.0 °F 55% 30.01 in 10.0 mi NW 16.1 mph 25.3 mph N/A   Clear
9:53 AM 8.1 °F -9.0 °F -8.0 °F 48% 30.00 in 10.0 mi NNW 15.0 mph 20.7 mph N/A   Clear
10:53 AM 10.9 °F -4.7 °F -9.0 °F 40% 29.98 in 10.0 mi NNW 13.8 mph 24.2 mph N/A   Clear
11:53 AM 12.9 °F -1.6 °F -7.1 °F 41% 29.96 in 10.0 mi NW 12.7 mph - N/A   Clear
12:53 PM 15.1 °F -2.0 °F -6.0 °F 39% 29.94 in 10.0 mi WNW 19.6 mph 26.5 mph N/A   Clear
1:53 PM 17.1 °F 2.5 °F -4.0 °F 39% 29.92 in 10.0 mi WNW 15.0 mph 20.7 mph N/A   Clear
2:53 PM 18.0 °F 4.2 °F -2.0 °F 41% 29.91 in 10.0 mi WNW 13.8 mph 23.0 mph N/A   Mostly Cloudy
3:53 PM 19.0 °F 5.0 °F -0.9 °F 42% 29.91 in 10.0 mi NNW 15.0 mph 21.9 mph N/A   Mostly Cloudy
4:53 PM 17.1 °F 2.5 °F -0.9 °F 45% 29.92 in 10.0 mi WNW 15.0 mph 24.2 mph N/A   Mostly Cloudy
5:53 PM 16.0 °F 2.9 °F -0.9 °F 47% 29.94 in 10.0 mi WNW 11.5 mph 20.7 mph N/A   Scattered Clouds
6:53 PM 15.1 °F 3.3 °F -0.9 °F 49% 29.95 in 10.0 mi NW 9.2 mph - N/A   Partly Cloudy
7:53 PM 12.9 °F 5.2 °F -0.9 °F 54% 29.97 in 10.0 mi West 4.6 mph - N/A   Clear
8:53 PM 10.9 °F 2.9 °F -0.9 °F 59% 29.99 in 10.0 mi West 4.6 mph - N/A   Clear
9:53 PM 8.1 °F -0.5 °F -2.0 °F 64% 30.00 in 10.0 mi WSW 4.6 mph - N/A   Clear
10:53 PM 5.0 °F -4.1 °F -2.0 °F 73% 30.01 in 10.0 mi WSW 4.6 mph - N/A   Clear
11:53 PM 3.0 °F -8.0 °F -4.0 °F 73% 30.02 in 10.0 mi WSW 5.8 mph - N/A   Clear